Other Public Products
Issued by NWS Grand Forks, ND

Home | Current Version | Previous Version | Text Only | Print | Product List | Glossary Off
Versions: 1 2 3 4 5 6 7 8 9 10 11 12 13 14 15 16 17 18 19 20 21 22 23 24 25 26 27 28 29 30 31 32 33 34 35 36 37 38 39 40 41 42 43 44 45 46 47 48 49 50

000
FPUS83 KFGF 270010
OPUFGF
PRAIRIE TO PINES WEATHER ROUNDUP
NATIONAL WEATHER SERVICE EASTERN NORTH DAKOTA/GRAND FORKS ND
700 PM CDT MON JUN 26 2017

 **SATELLITE DATA USED TO AUGMENT SKY COVER AT AUTOMATED STATIONS**
 *****  WEATHER ACROSS EASTERN NORTH DAKOTA  *****

CITY           SKY/WX    TMP DP  RH WIND       PRES   REMARKS
GRAND FORKS    NOT AVBL
GRAND FORKS AF FAIR      72  41  32 NW6       30.08F
GRAND CITY NWS NOT AVBL
BUXTON         NOT AVBL
DEVILS LAKE    FAIR      70  41  34 SW5       30.09F
6HR MIN TEMP:  66; 6HR MAX TEMP:  70;

FARGO          FAIR      73  37  27 W7        30.09F
6HR MIN TEMP:  70; 6HR MAX TEMP:  75;

WAHPETON ARPT  FAIR      70  32  24 CALM      30.12F
$$

 *****  WEATHER ACROSS CENTRAL AND WESTERN NORTH DAKOTA  *****

CITY           SKY/WX    TMP DP  RH WIND       PRES   REMARKS
JAMESTOWN      FAIR      70  37  29 SW8       30.10F
6HR MIN TEMP:  66; 6HR MAX TEMP:  71;

BISMARCK       FAIR      76  43  30 SE13      30.06F
6HR MIN TEMP:  70; 6HR MAX TEMP:  78;

MINOT          FAIR      77  40  26 SE8       30.01F
6HR MIN TEMP:  69; 6HR MAX TEMP:  77;

MINOT AFB      FAIR      76  41  28 S6        30.00F
6HR MIN TEMP:  70; 6HR MAX TEMP:  76;

GARRISON         N/A     76  40  27 S10       30.01F
6HR MIN TEMP:  67; 6HR MAX TEMP:  77;

WILLISTON      FAIR      83  40  21 SE13      29.95F
6HR MIN TEMP:  77; 6HR MAX TEMP:  85;

DICKINSON      FAIR      76  32  20 S15       30.00F
6HR MIN TEMP:  71; 6HR MAX TEMP:  79;

HETTINGER      FAIR      79  37  22 SE13G25   30.05F
6HR MIN TEMP:  73; 6HR MAX TEMP:  81;

$$

 *****  OTHER OBSERVATIONS NORTHEAST NORTH DAKOTA  *****

CITY           SKY/WX    TMP DP  RH WIND       PRES   REMARKS
WALHALLA       NOT AVBL
LANGDON        FAIR      70  41  35 SW10      30.09F
CAVALIER       FAIR      73  39  29 W8        30.06F
GRAFTON        FAIR      72  41  33 W9        30.08F
CANDO          NOT AVBL
FORT TOTTEN      N/A     73  45  36 CALM      29.95S
ROLLA            N/A     68  39  34 S12       30.08F
RUGBY          NOT AVBL
 ***** THE ABOVE OBSERVATIONS ARE NON NWS ARE NOT QUALITY
        CONTROLLED AND MAY MIS-REPORT RAIN FOR SNOW...
$$

 *****  OTHER OBSERVATIONS SOUTHEAST NORTH DAKOTA *****

CITY           SKY/WX    TMP DP  RH WIND       PRES   REMARKS
COOPERSTOWN    FAIR      72  37  28 CALM      30.10F
VALLEY CITY    FAIR      70  41  35 SW8       30.12F
OAKES          NOT AVBL
GWINNER        CLOUDY    70  39  32 CALM      30.12F
SHEYENNE NWR     N/A     75  40  28 CALM      29.95S
BUFFALO        NOT AVBL
WYNDMERE       NOT AVBL
 ***** THE ABOVE OBSERVATIONS ARE NON NWS ARE NOT QUALITY
       CONTROLLED AND MAY MIS-REPORT RAIN FOR SNOW...
$$

  *****  WEATHER ACROSS NORTHERN MINNESOTA  *****

CITY           SKY/WX    TMP DP  RH WIND       PRES   REMARKS
FLAG ISLAND    FAIR      68  45  42 N7        30.02F
WARROAD        FAIR      72  48  43 W8        30.05F
ROSEAU         FAIR      70  46  43 NW10      30.05F
HALLOCK        FAIR      73  36  25 W9        30.05F
THF RVR FALLS  FAIR      70  39  32 NW7       30.09F
6HR MIN TEMP:  68; 6HR MAX TEMP:  72;

HALSTAD        NOT AVBL
FOSSTON        FAIR      70  39  32 W6        30.10F
BAUDETTE       FAIR      69  46  43 NW8       30.04F
6HR MIN TEMP:  65; 6HR MAX TEMP:  70;

WASKISH        CLOUDY    66  48  52 W8        30.06S
CROOKSTON      FAIR      72  41  33 W5        30.08F
$$
  *****  WEATHER ACROSS CENTRAL AND WEST MINNESOTA  *****

CITY           SKY/WX    TMP DP  RH WIND       PRES   REMARKS
BEMIDJI        FAIR      68  38  32 NW13      30.09S
PARK RAPIDS    FAIR      70  36  28 NW12      30.10F
6HR MIN TEMP:  66; 6HR MAX TEMP:  72;

WADENA         FAIR      66  43  42 NW6       30.11F
DETROIT LAKES  FAIR      70  36  28 NW9G17    30.12F
MOORHEAD       FAIR      72  36  26 W3        30.10F
FERGUS FALLS   FAIR      70  39  32 NW7       30.09F
ELBOW LAKE     MOCLDY    69  42  38 NW7       30.13F
6HR MIN TEMP:  64; 6HR MAX TEMP:  69;

MORRIS MN      FAIR      72  39  30 NW7       30.12F
STAPLES        FAIR      70  36  28 NW10      30.11S
WHEATON        FAIR      70  37  30 NW3       30.14F
$$
  *****  WEATHER ELSEWHERE ACROSS MINNESOTA  *****

CITY           SKY/WX    TMP DP  RH WIND       PRES   REMARKS
DULUTH         PTSUNNY   63  44  50 NW8       30.05F
6HR MIN TEMP:  54; 6HR MAX TEMP:  68; 6HR PCP:  0.02;

INTRNTL FALLS  PTSUNNY   69  43  38 NW12      30.02F
6HR MIN TEMP:  60; 6HR MAX TEMP:  71; 6HR PCP:  0.01;

ELY            FAIR      63  39  42 NW10      30.03S
CLOQUET        FAIR      66  39  37 W6        30.06S
BRAINERD       FAIR      69  39  33 NW10      30.09F
6HR MIN TEMP:  65; 6HR MAX TEMP:  69; 6HR PCP: TRACE;

HIBBING        FAIR      64  43  46 NW10G18   30.04F
6HR MIN TEMP:  59; 6HR MAX TEMP:  66; 6HR PCP: TRACE;

ALEXANDRIA     FAIR      68  40  35 NW10      30.14F
6HR MIN TEMP:  65; 6HR MAX TEMP:  69;

SAINT CLOUD    FAIR      70  42  36 N9        30.10F
6HR MIN TEMP:  67; 6HR MAX TEMP:  73;

MINNEAPOLIS    FAIR      70  42  36 N6        30.10F
6HR MIN TEMP:  66; 6HR MAX TEMP:  73;

$$

  *****  WEATHER ACROSS SOUTH DAKOTA  *****

CITY           SKY/WX    TMP DP  RH WIND       PRES   REMARKS
SIOUX FALLS    FAIR      70  46  42 N7        30.14F
6HR MIN TEMP:  67; 6HR MAX TEMP:  72;

BROOKINGS      FAIR      68  38  33 NW3       30.15F
WATERTOWN      FAIR      68  38  33 NE5       30.14F
6HR MIN TEMP:  64; 6HR MAX TEMP:  69;

HURON          FAIR      71  38  29 CALM      30.13F
6HR MIN TEMP:  69; 6HR MAX TEMP:  73;

SISSETON         N/A     73  38  27 NE3       30.12F
ABERDEEN       FAIR      71  37  28 S6        30.13F
6HR MIN TEMP:  68; 6HR MAX TEMP:  74;

MITCHELL       FAIR      73  37  27 E7        30.13F
PIERRE         FAIR      73  41  31 SE13      30.09F
6HR MIN TEMP:  70; 6HR MAX TEMP:  75;

MOBRIDGE       FAIR      76  35  22 S8        30.07F
RAPID CITY     FAIR      78  39  24 S13G22    30.05F
6HR MIN TEMP:  73; 6HR MAX TEMP:  81;

$$

  *****  SOME WEATHER IN NEARBY STATES *****

CITY           SKY/WX    TMP DP  RH WIND       PRES   REMARKS
GLASGOW MT     FAIR      87  30  13 S20G28    29.81F
6HR MIN TEMP:  82; 6HR MAX TEMP:  89;

GREAT FALLS MT FAIR      93  33  12 W23G29    29.76F
6HR MIN TEMP:  86; 6HR MAX TEMP:  95;

CHEYENNE WY    FAIR      81  39  22 E13       30.17F
6HR MIN TEMP:  76; 6HR MAX TEMP:  82;

SCOTTSBLUFF NE FAIR      83  42  23 SE9       30.07F
6HR MIN TEMP:  78; 6HR MAX TEMP:  84;

OMAHA NE       FAIR      75  50  41 NE7       30.10S
6HR MIN TEMP:  71; 6HR MAX TEMP:  79;

DES MOINES IA  FAIR      73  43  33 N12       30.10S
6HR MIN TEMP:  68; 6HR MAX TEMP:  75;

DAVENPORT IA   FAIR      69  44  40 N9        30.08R
6HR MIN TEMP:  69; 6HR MAX TEMP:  73;

CHICAGO IL     PTSUNNY   67  43  41 NW21G26   30.04R
6HR MIN TEMP:  66; 6HR MAX TEMP:  75;

EAU CLAIRE WI  FAIR      65  47  52 NW9       30.08F
6HR MIN TEMP:  56; 6HR MAX TEMP:  70; 6HR PCP:  0.04;

LA CROSSE WI   FAIR      70  45  40 NW12      30.08R
6HR MIN TEMP:  68; 6HR MAX TEMP:  75;

$$

  *****  SOME NATIONAL WEATHER *****

CITY           SKY/WX    TMP DP  RH WIND       PRES   REMARKS
LA GUARDIA NY  FAIR      74  60  61 S13       29.97S
6HR MIN TEMP:  74; 6HR MAX TEMP:  81;



USA.gov is the U.S. government's official web portal to all federal, state and local government web resources and services.